User: anonymous   Login
Location: Unspecified
(0.0000°N, 0.0000°E)
Time: 09:52:37
(UTC+02:00)
Language:

YAOGAN 1 - Orbit

View from above orbital plane
View from above orbital plane
View from above satellite
View from above satellite

Ground track
Ground track

The orbit data is extracted from the following two-line orbital elements,

1 29092U 06015A   17143.56667218 +.00000095 +00000-0 +18386-4 0  9995
2 29092 098.0030 154.9098 0001433 091.7645 268.3732 14.82800312598612
Epoch (UTC): 23 May 2017 13:36:00
Eccentricity: 0.0001433
inclination: 98.0030°
perigee height: 619 km
apogee height: 621 km
right ascension of ascending node: 154.9098°
argument of perigee: 91.7645°
revolutions per day: 14.82800312
mean anomaly at epoch: 268.3732°
orbit number at epoch: 59861

The dashed part of the orbit path shows where the satellite is in the earth's shadow,  

DLR